Location: Beuerbach
(48.1459°N, 10.9174°E)
Time: 02:14:04
(UTC+00:00)

Cosmos 2082 Rocket - Pass Details

Date: 23 May 2024
Orbit: 832 x 853 km, 71.0° (Epoch: 13 June)

Event Time Altitude Azimuth Distance (km) Brightness Sun altitude
Exits shadow 01:48:52 - 259° (W) 2,627 4.3 -12.9°
Reaches altitude 10° 01:49:21 10° 262° (W) 2,485 4.2 -12.8°
Maximum altitude 01:53:56 24° 316° (NW) 1,690 3.9 -12.4°
Drops below altitude 10° 01:58:33 10° 10° (N) 2,492 5.7 -11.9°
Sets 02:01:30 0° 24° (NNE) 3,429 7.0 -11.6°
